Precipitable_Water
1.81 1.82 1.76 1.55 0.89 0.82 0.70 0.78 0.98 0.95 0.99 1.16 1.22 1.18 1.22 1.29 1.11 0.88 1.61 1.97 2.11 2.12 2.11 2.06 2.06 2.05 2.00 1.98 1.91 1.72 1.76 1.76 1.65 1.60 1.65 1.61 1.59 1.60 1.64 1.64 1.75 1.80 1.80 1.78 1.80 1.86 1.92 1.97 1.93
1.82 1.67 1.58 1.14 0.74 0.59 0.68 0.89 0.89 1.02 1.14 1.24 1.20 1.19 1.11 1.01 1.25 1.34 1.50 1.94 2.04 2.01 1.95 1.95 1.94 1.95 1.96 1.93 1.90 1.88 1.83 1.79 1.74 1.63 1.64 1.61 1.61 1.58 1.65 1.68 1.71 1.79 1.79 1.86 1.89 1.95 1.94 1.98 1.97
1.80 1.64 1.13 0.83 0.71 0.59 0.65 0.86 0.94 1.10 1.21 1.20 1.10 1.18 1.08 1.04 1.29 1.39 1.62 1.78 1.85 1.87 1.88 1.84 1.83 1.82 1.87 1.87 1.88 1.85 1.77 1.79 1.70 1.67 1.69 1.65 1.61 1.62 1.69 1.72 1.71 1.77 1.85 1.85 1.91 2.02 2.06 2.02 2.02
1.52 1.42 1.00 0.69 0.62 0.73 0.77 0.87 1.01 1.07 1.19 1.26 1.16 0.93 1.13 1.34 1.33 1.42 1.63 1.68 1.73 1.80 1.88 1.90 1.86 1.85 1.82 1.84 1.83 1.82 1.85 1.82 1.78 1.73 1.71 1.72 1.68 1.74 1.80 1.82 1.82 1.85 1.92 1.93 1.97 2.00 2.04 2.07 2.09
1.42 1.13 0.76 0.60 0.62 0.76 0.81 0.86 0.96 0.98 1.08 1.15 1.18 0.94 0.96 1.30 1.42 1.47 1.57 1.64 1.63 1.68 1.74 1.80 1.83 1.86 1.87 1.90 1.90 1.92 1.91 1.89 1.91 1.84 1.82 1.84 1.86 1.94 1.92 1.95 2.01 2.01 2.04 2.05 2.05 2.04 2.04 2.09 2.09
1.04 0.96 0.71 0.64 0.64 0.76 0.86 0.90 0.86 0.89 1.00 1.04 1.01 0.92 1.00 1.36 1.34 1.39 1.49 1.50 1.62 1.61 1.76 1.84 1.82 1.88 1.82 1.74 1.75 1.82 1.93 1.98 1.83 1.81 1.84 1.88 1.97 1.99 1.98 1.99 2.08 2.05 2.07 2.05 2.04 2.05 2.06 2.13 2.08
0.98 0.79 0.68 0.74 0.76 0.72 0.79 0.91 0.80 0.79 0.84 0.88 1.02 0.86 1.07 1.21 1.35 1.41 1.37 1.43 1.53 1.64 1.71 1.77 1.86 1.72 1.75 1.82 1.86 1.94 1.80 1.79 1.96 1.93 1.89 1.81 1.82 1.89 2.02 2.03 2.06 2.08 2.14 2.10 2.02 2.10 2.11 2.06 2.03
1.05 0.92 0.71 0.71 0.70 0.76 0.90 0.83 0.83 0.83 0.81 1.02 1.05 0.80 0.84 1.16 1.32 1.34 1.35 1.39 1.48 1.55 1.64 1.74 1.83 1.82 1.76 1.78 1.91 1.79 1.87 1.94 1.90 1.93 1.95 1.98 1.98 1.98 2.06 1.99 2.03 2.09 2.16 2.16 2.11 2.07 2.04 2.06 2.00
1.17 0.81 0.70 0.68 0.70 0.77 1.01 0.95 0.95 0.88 0.84 0.98 1.02 0.93 1.07 1.24 1.30 1.30 1.29 1.33 1.40 1.46 1.55 1.69 1.70 1.71 1.72 1.74 1.78 1.81 1.82 1.88 1.90 1.90 1.87 1.86 2.01 1.92 1.92 2.07 2.21 2.32 2.31 2.13 2.04 2.04 2.04 2.04 2.01
1.01 0.77 0.76 0.90 0.86 0.81 0.89 1.00 0.94 0.85 0.84 0.90 0.96 1.07 1.14 1.18 1.15 1.17 1.18 1.20 1.31 1.40 1.57 1.72 1.73 1.72 1.70 1.75 1.86 1.96 1.95 2.09 2.03 2.13 2.19 2.17 2.11 2.02 2.10 2.22 2.27 2.38 2.26 2.23 1.98 1.96 2.12 1.97 2.06
1.00 0.80 0.93 0.91 0.91 0.97 0.93 0.94 0.99 0.98 0.86 0.80 0.83 0.92 1.05 1.08 1.07 1.07 1.12 1.20 1.27 1.47 1.67 1.78 1.81 1.78 1.70 1.73 1.85 1.92 2.01 2.14 2.15 2.15 2.17 2.21 2.17 2.18 2.28 2.33 2.37 2.37 2.32 2.28 2.07 2.07 2.04 2.12 1.96
0.92 1.04 0.97 0.96 1.03 0.98 0.93 1.02 0.92 0.96 0.98 0.96 0.94 0.93 1.00 1.02 1.03 1.02 1.05 1.15 1.29 1.42 1.59 1.72 1.82 1.79 1.76 1.76 1.80 1.87 1.87 2.00 2.07 2.14 2.17 2.21 2.21 2.28 2.23 2.14 2.08 2.06 2.13 1.88 1.78 1.75 1.93 2.19 1.94
0.96 0.99 1.04 1.03 1.06 1.04 1.05 0.96 0.96 0.95 1.00 1.00 1.01 0.98 1.03 1.05 1.09 1.15 1.19 1.20 1.29 1.33 1.47 1.60 1.72 1.73 1.73 1.75 1.75 1.76 1.77 1.83 1.95 2.05 2.12 2.17 2.18 2.06 2.11 1.93 1.91 1.81 1.83 1.75 1.78 1.80 1.94 2.09 2.18
0.99 0.98 0.98 1.04 1.04 1.03 0.96 0.97 0.96 0.98 1.08 0.88 0.97 1.02 1.13 1.13 1.13 1.15 1.21 1.23 1.33 1.36 1.35 1.47 1.58 1.65 1.68 1.67 1.69 1.71 1.78 1.85 1.91 2.00 2.07 2.12 2.14 2.12 2.11 2.02 1.84 1.85 1.86 1.82 1.86 1.89 1.87 1.92 2.02
0.95 0.84 0.91 0.95 0.97 0.94 1.02 0.87 0.90 1.03 1.03 0.93 0.89 0.99 1.12 1.21 1.24 1.20 1.23 1.27 1.40 1.46 1.36 1.44 1.54 1.64 1.68 1.69 1.71 1.78 1.80 1.82 1.89 1.95 2.09 2.21 2.18 2.06 2.02 2.03 1.95 1.92 1.79 1.71 1.70 1.82 1.98 2.03 1.98
0.77 0.78 0.70 0.81 0.88 0.93 0.91 0.73 0.96 1.11 0.99 0.87 0.99 1.03 1.00 1.13 1.28 1.37 1.40 1.41 1.49 1.50 1.36 1.45 1.51 1.57 1.67 1.67 1.72 1.75 1.77 1.88 1.87 1.99 2.17 2.26 2.21 2.13 2.17 2.02 1.88 1.85 1.72 1.54 1.58 1.70 1.85 1.90 1.92
0.67 0.60 0.62 0.66 0.82 0.87 0.85 0.79 1.00 1.15 1.08 0.93 0.94 1.05 1.08 1.11 1.20 1.31 1.43 1.48 1.50 1.51 1.46 1.44 1.46 1.50 1.57 1.63 1.67 1.67 1.72 1.71 1.82 1.89 2.09 2.21 2.24 2.14 2.10 1.95 1.87 1.80 1.76 1.65 1.61 1.57 1.73 1.80 2.03
0.54 0.56 0.62 0.58 0.72 0.78 0.75 0.77 0.94 1.08 1.08 1.01 0.98 1.01 1.06 1.11 1.15 1.28 1.37 1.46 1.55 1.55 1.58 1.54 1.53 1.54 1.61 1.62 1.63 1.60 1.63 1.69 1.84 1.88 2.06 2.19 2.20 2.09 2.05 1.96 1.85 1.80 1.74 1.70 1.64 1.48 1.40 1.81 2.09
0.58 0.56 0.55 0.59 0.66 0.74 0.72 0.74 0.85 0.99 1.08 1.01 1.01 1.00 1.04 1.10 1.21 1.30 1.34 1.41 1.45 1.55 1.57 1.56 1.56 1.61 1.62 1.60 1.50 1.46 1.47 1.58 1.74 1.89 2.06 2.13 2.12 2.05 2.04 2.02 1.98 1.82 1.76 1.73 1.66 1.55 1.44 1.50 1.95
0.53 0.51 0.51 0.58 0.66 0.65 0.67 0.67 0.80 0.91 0.94 1.04 1.05 1.06 1.05 1.09 1.19 1.24 1.27 1.31 1.35 1.44 1.55 1.59 1.58 1.63 1.63 1.60 1.58 1.56 1.55 1.62 1.68 1.84 1.99 2.04 2.07 1.91 1.97 1.98 1.91 1.81 1.74 1.71 1.63 1.46 1.49 1.50 1.53
0.49 0.48 0.50 0.46 0.53 0.64 0.54 0.59 0.67 0.83 0.94 1.03 1.07 1.14 1.16 1.12 1.11 1.20 1.23 1.21 1.27 1.33 1.46 1.57 1.63 1.64 1.64 1.65 1.67 1.64 1.62 1.60 1.60 1.72 1.86 1.93 2.04 1.97 2.04 2.02 1.98 1.86 1.77 1.70 1.62 1.53 1.46 1.42 1.50
0.46 0.54 0.48 0.45 0.44 0.38 0.49 0.50 0.59 0.71 0.77 0.88 0.99 1.05 1.09 1.15 1.15 1.19 1.24 1.14 1.19 1.26 1.43 1.53 1.62 1.64 1.66 1.68 1.61 1.58 1.49 1.41 1.54 1.66 1.79 1.96 2.09 2.01 2.05 2.05 2.02 1.83 1.73 1.70 1.59 1.56 1.55 1.37 1.37
0.47 0.50 0.46 0.43 0.40 0.39 0.46 0.44 0.65 0.63 0.66 0.74 0.88 0.98 1.05 1.08 1.11 1.12 1.18 1.22 1.19 1.30 1.34 1.44 1.55 1.59 1.62 1.62 1.60 1.61 1.57 1.59 1.60 1.68 1.80 1.91 2.01 2.04 2.02 1.99 1.94 1.89 1.75 1.68 1.60 1.53 1.53 1.41 1.24
0.48 0.45 0.42 0.44 0.39 0.30 0.41 0.45 0.49 0.59 0.60 0.64 0.78 0.91 0.94 0.96 1.03 1.10 1.17 1.21 1.18 1.27 1.37 1.42 1.44 1.55 1.62 1.62 1.64 1.61 1.56 1.54 1.57 1.59 1.66 1.82 1.94 1.97 1.97 1.93 1.91 1.89 1.87 1.78 1.65 1.57 1.50 1.49 1.31
0.28 0.23 0.22 0.25 0.31 0.26 0.44 0.41 0.49 0.58 0.56 0.55 0.60 0.78 0.87 0.94 0.99 1.09 1.10 1.13 1.15 1.19 1.27 1.42 1.45 1.50 1.57 1.58 1.60 1.63 1.65 1.62 1.55 1.57 1.66 1.72 1.80 1.82 1.85 1.87 1.83 1.84 1.88 1.87 1.79 1.65 1.57 1.46 1.30
0.17 0.21 0.19 0.22 0.28 0.27 0.39 0.33 0.47 0.53 0.55 0.58 0.65 0.80 0.86 0.90 0.99 1.06 1.08 1.13 1.16 1.25 1.32 1.41 1.47 1.51 1.62 1.55 1.56 1.63 1.66 1.63 1.57 1.61 1.69 1.67 1.75 1.76 1.83 1.84 1.85 1.85 1.86 1.88 1.87 1.71 1.57 1.47 1.27
0.19 0.19 0.25 0.24 0.29 0.26 0.30 0.37 0.42 0.47 0.54 0.56 0.74 0.79 0.82 0.89 0.97 1.01 1.14 1.28 1.33 1.29 1.32 1.42 1.49 1.62 1.69 1.73 1.67 1.66 1.71 1.64 1.57 1.64 1.76 1.69 1.74 1.77 1.82 1.86 1.86 1.88 1.86 1.82 1.84 1.75 1.60 1.47 1.42
0.21 0.23 0.19 0.21 0.20 0.22 0.25 0.27 0.29 0.39 0.41 0.56 0.70 0.74 0.82 0.92 0.98 1.06 1.19 1.29 1.40 1.43 1.40 1.45 1.57 1.69 1.74 1.77 1.83 1.69 1.61 1.71 1.68 1.65 1.66 1.69 1.69 1.78 1.82 1.89 1.88 1.88 1.90 1.86 1.79 1.66 1.64 1.51 1.49
0.17 0.19 0.21 0.26 0.26 0.23 0.23 0.25 0.30 0.34 0.42 0.54 0.71 0.78 0.85 0.88 0.99 1.08 1.22 1.34 1.46 1.52 1.44 1.45 1.61 1.71 1.73 1.76 1.71 1.72 1.59 1.63 1.66 1.63 1.64 1.70 1.74 1.76 1.80 1.86 1.91 1.90 1.92 1.94 1.85 1.79 1.66 1.52 1.44
0.22 0.20 0.22 0.21 0.24 0.22 0.20 0.21 0.29 0.42 0.57 0.65 0.73 0.76 0.92 0.96 1.00 1.08 1.21 1.30 1.41 1.51 1.47 1.47 1.56 1.60 1.60 1.47 1.31 1.52 1.34 1.59 1.55 1.60 1.64 1.69 1.70 1.78 1.79 1.84 1.89 1.91 1.94 2.00 1.96 1.89 1.86 1.75 1.61
Wind_Speed
13 13 10 9 11 13 16 14 15 14 14 15 14 13 16 11 8 15 21 18 20 21 21 21 20 20 20 19 19 20 19 19 19 18 18 17 16 15 14 14 13 13 12 12 11 11 11 12 12
12 11 11 10 12 14 14 13 13 13 15 15 15 14 14 16 19 21 20 20 19 19 19 19 20 20 19 19 18 18 17 18 17 16 15 15 14 12 12 11 11 11 11 10 9 9 9 10 10
12 10 8 10 14 15 14 12 12 14 13 11 11 15 14 16 20 18 20 20 20 19 18 19 18 18 18 17 17 17 17 16 16 14 14 13 11 10 10 9 9 9 8 9 9 8 7 8 9
11 11 10 13 16 16 15 12 12 12 11 11 13 14 15 17 16 20 21 20 18 17 17 18 18 17 17 16 16 15 15 15 14 13 12 10 9 9 8 8 7 7 6 7 7 7 7 8 8
12 10 15 15 15 14 14 11 10 10 10 10 9 14 16 14 17 20 19 18 18 17 17 16 16 16 15 15 15 14 14 13 12 11 10 9 8 8 8 7 7 6 6 6 7 8 7 7 8
10 10 13 14 13 12 12 11 10 11 11 11 14 18 14 15 18 17 17 17 16 16 16 15 15 15 14 14 13 13 12 11 11 10 9 8 8 7 7 7 8 8 8 8 7 8 8 7 7
11 13 14 14 12 11 11 11 11 11 11 12 15 14 14 16 16 16 16 16 15 15 14 14 13 13 13 12 12 11 11 10 9 9 8 7 7 6 6 7 7 7 8 8 8 7 7 8 8
9 9 11 11 12 11 10 11 11 11 12 12 14 9 15 16 17 16 15 14 14 13 13 12 12 11 11 11 10 10 10 9 8 7 7 6 6 5 5 5 5 6 6 6 7 7 7 7 8
7 7 11 11 11 11 10 10 9 10 12 8 6 12 15 17 16 15 14 13 12 11 11 11 11 10 10 9 9 9 8 7 7 6 5 5 5 4 4 4 4 5 4 5 4 5 5 5 6
7 9 10 9 10 11 10 9 10 9 9 8 9 12 16 16 15 14 13 12 12 11 11 10 10 10 9 8 8 7 7 6 6 5 5 5 4 4 3 3 3 4 3 3 4 4 4 4 4
9 9 9 10 10 10 10 10 8 8 5 6 11 15 16 15 14 13 12 11 11 10 10 9 9 9 8 8 7 7 6 6 6 5 4 4 4 3 2 3 3 3 3 2 2 2 2 3 3
9 8 7 9 9 9 8 9 8 8 7 7 11 15 15 14 13 12 12 11 11 10 9 9 9 9 8 7 7 6 6 5 5 4 4 3 3 2 3 3 4 3 3 3 2 1 1 2 3
9 7 6 7 8 9 8 7 8 8 9 10 12 13 13 12 12 12 11 11 10 10 9 9 9 9 8 7 6 6 5 5 4 4 3 3 2 3 2 3 4 3 3 3 3 2 0 1 3
6 7 8 6 7 7 6 7 7 8 9 10 12 12 11 11 11 11 11 11 10 9 10 9 9 8 8 6 6 5 5 4 4 4 3 2 2 2 2 3 3 4 3 3 3 3 1 1 2
7 7 7 6 5 5 6 5 4 8 8 10 10 10 11 10 11 11 10 10 10 10 10 10 9 9 7 6 6 5 4 4 4 4 3 2 1 2 2 3 3 3 3 3 3 2 2 0 2
4 4 4 3 2 3 1 5 4 7 8 9 9 9 10 10 10 10 9 9 9 10 11 10 10 9 8 6 6 5 4 4 4 4 3 2 1 1 2 3 3 3 3 3 3 2 2 2 1
2 4 3 3 2 2 0 4 5 5 6 7 8 8 9 10 10 9 9 9 8 9 10 11 10 10 9 7 7 5 4 5 4 4 3 2 1 2 2 3 3 2 3 3 2 2 1 1 0
2 3 2 4 2 1 1 3 4 5 7 6 7 8 8 9 10 9 9 9 8 8 9 10 11 10 9 8 7 6 5 5 4 4 3 3 1 1 1 2 3 3 3 3 2 2 1 0 2
2 1 1 2 3 1 1 2 3 6 7 8 7 7 8 8 9 9 9 10 9 8 9 10 11 11 10 9 8 7 6 6 5 4 4 3 2 1 1 2 3 4 4 4 3 1 1 2 5
7 5 1 1 1 3 2 5 4 7 8 8 9 8 8 8 9 10 9 9 10 9 9 10 11 11 11 10 9 8 7 7 6 5 5 3 3 2 2 2 3 4 5 4 3 2 2 3 4
12 10 4 4 5 5 6 6 4 6 8 9 10 10 9 9 10 10 10 9 9 9 10 10 11 11 11 11 9 9 8 7 6 6 5 5 3 3 2 3 4 5 5 4 3 3 3 4 4
15 7 7 6 6 4 4 2 5 5 7 9 12 13 11 11 11 11 11 10 10 9 9 10 10 11 11 11 10 10 9 8 7 7 6 6 5 4 3 4 4 5 5 4 3 3 3 3 4
16 9 9 8 10 8 8 7 4 5 5 7 11 15 14 13 13 11 11 11 10 10 9 9 10 11 11 11 12 10 10 9 8 8 7 6 5 5 4 4 4 5 5 5 3 4 4 4 4
16 14 13 12 11 12 9 9 7 6 1 3 5 13 14 14 14 12 10 10 10 10 10 9 10 11 11 11 11 12 11 10 9 9 7 7 6 5 5 4 4 5 5 4 3 4 4 4 4
17 16 14 14 13 11 5 10 10 3 3 5 6 11 13 13 13 12 11 10 11 11 11 10 10 11 11 11 11 11 11 11 11 10 9 8 7 6 5 4 3 4 4 2 3 5 5 5 4
20 20 14 13 13 11 7 11 8 6 6 7 6 10 12 12 12 12 12 11 10 10 11 11 11 11 11 11 12 11 11 11 11 11 10 9 8 6 5 4 3 3 3 2 2 4 5 5 5
18 21 18 18 10 11 8 9 13 9 6 5 5 9 12 12 11 11 11 12 10 10 11 11 11 11 11 11 12 13 13 13 11 11 10 10 10 8 6 5 4 4 3 2 2 3 5 5 6
16 19 15 15 15 13 12 10 11 10 9 6 8 9 10 12 12 12 12 12 11 11 10 11 11 11 11 11 12 14 15 15 14 13 12 11 10 9 8 7 6 6 5 4 3 2 4 5 6
17 16 17 13 13 13 12 11 11 10 9 8 9 10 9 9 11 12 13 13 12 11 10 11 10 9 8 9 17 20 18 16 14 14 14 13 12 11 11 10 9 8 7 6 6 6 5 5 6
20 21 18 16 15 13 15 13 8 9 8 9 8 8 8 8 9 10 13 13 14 13 11 10 10 9 9 10 11 17 19 16 14 14 14 14 14 13 12 12 11 11 10 9 9 10 9 9 9
Wind_Direction
71 72 74 79 79 84 83 86 99 100 91 91 87 87 92 87 95 112 130 133 123 119 120 120 117 118 120 119 119 118 117 116 115 115 113 110 105 100 95 91 88 86 82 82 78 74 69 66 67
69 70 72 67 81 80 81 96 97 92 101 100 91 84 90 93 106 120 125 129 128 123 123 123 121 120 120 119 120 120 118 117 117 116 114 111 107 100 95 90 87 85 79 77 72 74 70 62 66
66 62 67 71 70 71 82 88 99 107 108 93 96 94 95 103 115 117 127 127 127 124 123 123 122 122 122 121 122 120 120 119 118 117 114 110 105 100 94 91 86 82 76 70 67 66 67 67 71
61 68 66 76 79 76 80 88 103 111 107 93 106 100 106 114 115 119 125 124 125 124 124 124 124 123 122 123 123 123 122 120 119 118 114 109 104 98 92 88 82 74 73 70 66 63 72 72 75
58 63 74 79 85 80 79 82 103 108 106 111 108 120 118 117 122 127 127 127 125 124 125 125 124 124 123 124 124 124 124 121 119 117 114 108 103 98 91 84 75 68 72 76 68 68 75 77 79
56 59 70 78 85 81 73 80 96 101 108 105 114 122 122 127 131 132 130 129 128 126 126 125 124 123 124 126 126 127 125 122 118 116 113 109 102 100 90 81 75 77 78 77 74 75 76 77 88
51 63 69 78 87 84 77 77 88 100 106 110 123 122 129 136 139 137 135 134 132 129 128 128 127 126 126 127 128 126 125 124 120 116 112 109 105 101 89 85 79 78 77 77 76 75 79 80 90
48 63 72 66 75 83 86 85 88 91 99 117 124 135 144 144 141 139 137 138 136 135 135 134 132 130 130 129 128 128 128 127 122 117 111 110 109 101 92 82 79 78 74 78 78 77 83 84 94
46 66 68 68 66 90 99 87 83 97 113 108 112 137 144 145 145 145 146 145 143 143 143 143 140 137 133 133 132 131 132 131 129 121 117 114 111 101 88 76 59 49 68 70 78 85 85 91 99
41 69 72 68 77 92 93 88 96 107 106 107 122 129 144 148 151 153 153 152 155 151 150 148 148 142 141 138 137 136 137 135 134 128 121 116 114 103 85 66 45 45 63 68 74 87 90 100 115
56 88 92 76 73 94 89 89 92 108 106 114 139 143 150 153 157 160 159 158 159 158 155 158 157 154 151 147 142 141 141 137 135 133 133 125 115 94 72 45 26 33 37 72 63 87 90 130 130
78 90 92 90 80 94 86 87 87 69 74 117 139 147 153 159 162 162 163 162 162 163 163 160 159 161 158 152 149 145 144 144 141 137 135 130 119 71 39 39 36 42 54 46 45 62 138 153 153
85 98 92 101 85 89 79 80 74 75 85 112 134 147 155 162 165 167 166 165 167 168 168 166 164 162 160 157 153 153 151 152 150 142 131 121 96 61 56 48 36 37 44 43 43 41 125 194 192
91 103 102 107 94 84 75 84 87 86 101 116 134 149 154 161 166 169 173 172 172 173 173 171 170 169 167 165 163 158 156 157 157 156 149 129 92 55 48 43 35 36 47 36 34 29 45 147 188
105 110 110 112 101 79 85 92 70 107 116 124 138 147 155 159 160 164 172 177 180 180 178 178 176 176 175 175 170 168 166 163 165 164 158 137 87 56 46 43 30 39 37 35 31 33 39 307 213
105 111 119 110 136 93 112 78 104 127 128 135 142 148 157 164 165 165 166 170 175 183 185 186 187 187 187 187 184 187 186 179 176 176 175 151 90 53 51 45 34 39 36 37 39 41 54 55 179
134 97 77 104 106 102 215 85 138 154 151 145 153 160 166 169 176 177 176 176 176 182 188 192 194 196 196 196 197 197 195 189 191 184 186 183 164 49 41 33 29 22 20 12 9 22 34 11 36
121 105 112 37 45 190 147 86 143 175 181 169 169 172 178 184 186 187 189 189 189 189 192 198 199 200 200 202 202 204 203 196 191 195 197 199 219 313 13 22 15 10 0 353 346 336 349 74 129
214 237 23 76 35 217 226 270 183 191 202 195 186 186 191 196 194 194 196 199 200 201 201 202 203 203 203 205 205 206 207 200 201 203 203 222 226 262 264 333 353 357 348 344 326 310 157 125 128
228 243 225 182 341 279 272 282 221 200 203 206 204 199 201 201 199 198 198 201 206 208 208 204 204 205 206 207 207 208 209 209 213 218 212 217 222 256 262 313 336 334 337 334 322 239 192 177 179
233 245 258 292 307 263 287 252 199 210 220 218 219 220 214 208 203 200 202 206 204 207 208 207 207 207 208 209 209 211 213 216 219 216 214 218 239 248 277 297 318 323 322 323 314 225 208 203 207
240 237 238 254 277 283 278 257 206 192 223 229 226 221 222 218 211 210 208 208 208 209 208 210 209 210 210 210 211 212 214 217 219 218 220 233 245 248 263 291 312 321 315 308 294 220 215 224 212
240 242 236 246 263 265 223 253 172 198 229 244 234 225 222 215 215 215 214 211 211 209 210 210 209 209 211 212 214 214 217 219 221 219 226 237 237 240 258 286 312 324 316 298 263 215 218 221 232
237 238 238 248 261 261 235 241 205 187 281 287 245 218 217 214 211 213 213 211 214 214 214 213 210 210 211 212 215 217 220 221 221 223 232 230 230 241 250 275 307 324 323 305 236 219 222 226 234
222 229 236 236 236 245 218 233 235 257 281 290 284 208 205 207 210 211 212 211 212 214 213 213 210 210 212 214 216 218 221 223 227 228 228 229 232 238 248 263 296 324 330 321 238 225 226 226 236
223 225 228 226 240 240 229 241 233 239 272 304 248 205 199 201 205 209 211 212 211 212 211 214 215 214 216 220 222 223 223 225 227 227 227 225 225 234 244 252 272 305 329 322 265 233 227 230 240
215 226 234 254 243 256 250 236 256 237 243 294 201 192 201 207 208 207 208 207 211 213 214 215 215 219 224 227 230 229 227 227 227 227 225 225 229 235 240 248 257 272 293 307 295 247 230 234 246
231 221 221 232 247 244 247 249 254 230 260 244 201 202 204 212 217 216 214 213 218 219 219 217 219 220 226 236 242 238 230 226 229 231 230 229 231 236 242 247 253 261 266 270 273 267 246 246 254
216 219 228 249 236 256 254 256 255 248 252 226 205 213 219 223 221 222 220 222 221 217 217 216 217 220 230 248 261 244 229 224 227 231 231 232 235 238 243 247 251 257 262 261 259 260 259 257 258
226 222 223 228 233 253 265 267 264 218 213 208 205 215 215 224 226 225 220 222 216 216 211 210 216 225 248 290 318 217 212 222 225 228 232 237 239 241 245 248 250 255 260 261 262 259 258 261 263